Antonio Macea, Cuba

12:53 PM CST on November 19, 2017 (GMT -0500)
Guantanamo Bay Naval Air Station | | Change Station

Elev 56 ft 19.91 °N, 75.21 °W | Updated 57 minutes ago

Partly Cloudy
Partly Cloudy
87 °F
Feels Like 97 °F
N
7
Wind Variable Wind from SE

Today
High -- | Low -- °F
--% Chance of Precip.
Yesterday
High -- | Low -- °F
Precip. -- in
Pressure 29.87 in
Visibility 6.2 miles
Clouds Scattered Clouds 3500 ft
Mostly Cloudy 5500 ft
Heat Index 97 °F
Dew Point 76 °F
Humidity 69%
Rainfall 0.00 in
Snow Depth Not available.
6:14 AM 5:22 PM
New Moon, 1% visible
METAR MUGM 191656Z 13006KT 9999 -RA SCT035 BKN055 31/24 A2987 RMK RAB50 SLP113 P0000 T03060244
Pressure 29.87 in
Visibility 6.2 miles
Clouds Scattered Clouds 3500 ft
Mostly Cloudy 5500 ft
Heat Index 97 °F
Dew Point 76 °F
Humidity 69%
Rainfall 0.00 in
Snow Depth Not available.
6:14 AM 5:22 PM
New Moon, 1% visible
METAR MUGM 191656Z 13006KT 9999 -RA SCT035 BKN055 31/24 A2987 RMK RAB50 SLP113 P0000 T03060244

Get Severe Weather Alerts

Thanks for signing up!

Be on the lookout for a verification email in your inbox.

You'll start receiving the daily forecast at 6 AM.

×

10-Day Weather Forecast

No radar image for this location.
×

Almanac

Astronomy

Nov. 19, 2017 Rise Set
Actual Time
Civil Twilight
Nautical Twilight
Astronomical Twilight
Moon
Length of Visible Light
Length of Day
Tomorrow will be .
, % of the Moon is Illuminated

Today's Extremes

Country Highs Country Lows

Community

WunderPhotos

Category 6

Welcome to Category 6. This is the collective home for Weather Underground's featured writeups by Dr. Jeff Masters (right), Bob Henson (left), Chris Burt, and other regular contributors.

Nearby

Air Quality

  Air Quality AQ Index Pollutant
Not available.

Snow Depth

Station Depth Elevation

Earthquake Activity

City Distance Mag. Time & Date
Minimum magnitude displayed is 2.5.

Coastal Water Temperatures

Place Temperature

Stations

Nearby Weather Stations

Station Location Temp. Windchill Dew Point Humidity Wind Precip. Elev Updated Type